Date String (YYYY-MM-DD hh:mm:ss) UTC,Instrument flags,absolute air pressure of the measurement (hPa),sample flow rate (lpm),inlet stack bypass flow (lpm),air temperature of the measurement (°C),ambient temperature measured by the external sensor (°C),aerosol sample conditioner tube jacket temperature (°C),OPC LED temperature (°C),internal box temperature (°C),relative humidity of the measurement (%),span deviation,mass concentration of particles derived from Lorenz-Mie calculation of OPC scattering (μg/m³),mass concentration of particles derived from Lorenz-Mie calculation of OPC scattering (μg/m³),mass concentration of particles derived from Lorenz-Mie calculation of OPC scattering (μg/m³)
DateTimeUTC,F1_M11,P_M11,Q1_M11,Q2_M11,T1_M11,T2_M11,T3_M11,T4_M11,T5_M11,U1_M11,ZSPAN_M11,X2_M11,X0_M11,X1_M11
2023-09-01 21:00:00,SystemResetWarning,0830.2,5.02,000.00,027.6,024.6,000.0,035.7,028.9,20.7,0000.0,0004.20,0014.89,0003.17
2023-09-01 21:01:00,SystemResetWarning,0830.3,5.00,000.00,027.5,024.9,000.0,035.7,029.0,21.5,0000.0,0004.18,0013.98,0003.17
2023-09-01 21:02:00,SystemResetWarning,0830.3,5.00,000.00,027.6,025.3,000.0,035.8,029.1,21.2,0000.0,0004.19,0013.24,0003.17
2023-09-01 21:03:00,SystemResetWarning,0830.3,5.00,000.00,027.6,025.8,000.0,035.8,029.3,20.6,0000.0,0004.17,0013.15,0003.17
2023-09-01 21:04:00,SystemResetWarning,0830.3,5.00,000.00,027.7,026.2,000.0,035.8,029.4,21.1,0000.0,0004.18,0012.64,0003.17
2023-09-01 21:05:00,SystemResetWarning,0830.3,4.99,000.00,027.7,026.2,000.0,035.8,029.4,20.7,0000.0,0004.18,0011.88,0003.17
2023-09-01 21:06:00,SystemResetWarning,0830.2,4.99,000.00,027.7,025.0,000.0,035.8,029.0,21.1,0000.0,0004.21,0013.38,0003.18
2023-09-01 21:07:00,SystemResetWarning,0830.2,5.01,000.00,027.6,024.4,000.0,035.8,028.8,21.5,0000.0,0004.20,0013.97,0003.17
2023-09-01 21:08:00,SystemResetWarning,0830.2,5.01,000.00,027.5,024.7,000.0,035.7,028.9,21.0,0000.0,0004.21,0015.04,0003.17
2023-09-01 21:09:00,SystemResetWarning,0830.2,5.00,000.00,027.5,025.1,000.0,035.8,029.0,20.9,0000.0,0004.22,0015.00,0003.17
2023-09-01 21:10:00,SystemResetWarning,0830.2,5.00,000.00,027.6,025.6,000.0,035.8,029.2,20.5,0000.0,0004.24,0015.20,0003.18
2023-09-01 21:11:00,SystemResetWarning,0830.2,5.00,000.00,027.6,026.0,000.0,035.8,029.3,20.5,0000.0,0004.18,0015.28,0003.18
2023-09-01 21:12:00,SystemResetWarning,0830.2,5.00,000.00,027.7,026.4,000.0,035.9,029.5,20.7,0000.0,0004.20,0016.22,0003.18
2023-09-01 21:13:00,SystemResetWarning,0830.1,4.98,000.00,027.7,025.7,000.0,035.8,029.2,20.9,0000.0,0004.22,0017.39,0003.19
2023-09-01 21:14:00,SystemResetWarning,0830.1,5.00,000.00,027.6,024.5,000.0,035.8,028.8,21.0,0000.0,0004.28,0017.99,0003.19
2023-09-01 21:15:00,SystemResetWarning,0830.1,5.02,000.00,027.5,024.5,000.0,035.7,028.9,21.2,0000.0,0004.31,0017.53,0003.19
2023-09-01 21:16:00,SystemResetWarning,0830.1,5.01,000.00,027.5,024.9,000.0,035.7,028.9,21.3,0000.0,0004.32,0017.85,0003.19
2023-09-01 21:17:00,SystemResetWarning,0830.1,4.99,000.00,027.5,025.3,000.0,035.8,029.1,21.6,0000.0,0004.33,0016.60,0003.19
2023-09-01 21:18:00,SystemResetWarning,0830.1,5.00,000.00,027.6,025.7,000.0,035.8,029.3,21.3,0000.0,0004.34,0015.80,0003.19
2023-09-01 21:19:00,SystemResetWarning,0830.1,5.01,000.00,027.6,026.2,000.0,035.8,029.4,21.8,0000.0,0004.33,0015.95,0003.20
2023-09-01 21:20:00,SystemResetWarning,0830.1,4.99,000.00,027.7,026.1,000.0,035.8,029.4,21.7,0000.0,0004.32,0016.21,0003.20
2023-09-01 21:21:00,SystemResetWarning,0830.1,4.98,000.00,027.6,025.0,000.0,035.8,028.9,22.2,0000.0,0004.29,0016.21,0003.20
2023-09-01 21:22:00,SystemResetWarning,0830.1,5.00,000.00,027.5,024.4,000.0,035.7,028.8,22.6,0000.0,0004.36,0015.96,0003.20
2023-09-01 21:23:00,SystemResetWarning,0830.1,5.02,000.00,027.5,024.7,000.0,035.7,028.9,22.5,0000.0,0004.38,0015.25,0003.22
2023-09-01 21:24:00,SystemResetWarning,0830.1,4.99,000.00,027.5,025.1,000.0,035.7,029.0,22.1,0000.0,0004.38,0014.86,0003.22
2023-09-01 21:25:00,SystemResetWarning,0830.1,5.00,000.00,027.5,025.6,000.0,035.8,029.2,21.8,0000.0,0004.40,0014.84,0003.21
2023-09-01 21:26:00,SystemResetWarning,0830.1,5.00,000.00,027.6,026.0,000.0,035.8,029.4,22.0,0000.0,0004.38,0014.22,0003.22
2023-09-01 21:27:00,SystemResetWarning,0830.1,5.00,000.00,027.7,026.3,000.0,035.8,029.4,21.9,0000.0,0004.37,0014.82,0003.22
2023-09-01 21:28:00,SystemResetWarning,0830.1,4.98,000.00,027.7,025.5,000.0,035.8,029.1,21.4,0000.0,0004.34,0015.73,0003.21
2023-09-01 21:29:00,SystemResetWarning,0830.0,5.00,000.00,027.5,024.4,000.0,035.7,028.8,21.7,0000.0,0004.35,0016.04,0003.21
2023-09-01 21:30:00,SystemResetWarning,0830.1,5.02,000.00,027.5,024.5,000.0,035.7,028.9,21.7,0000.0,0004.32,0015.62,0003.20
2023-09-01 21:31:00,SystemResetWarning,0830.0,4.99,000.00,027.5,024.9,000.0,035.7,028.9,21.6,0000.0,0004.35,0015.70,0003.21
2023-09-01 21:32:00,SystemResetWarning,0830.1,4.99,000.00,027.5,025.3,000.0,035.7,029.1,22.2,0000.0,0004.35,0016.18,0003.20
2023-09-01 21:33:00,SystemResetWarning,0830.1,5.00,000.00,027.6,025.8,000.0,035.8,029.2,21.9,0000.0,0004.35,0016.18,0003.19
2023-09-01 21:34:00,SystemResetWarning,0830.0,5.01,000.00,027.6,026.2,000.0,035.8,029.4,21.6,0000.0,0004.33,0016.81,0003.17
2023-09-01 21:35:00,SystemResetWarning,0830.1,5.01,000.00,027.7,026.1,000.0,035.8,029.4,20.8,0000.0,0004.34,0016.26,0003.17
2023-09-01 21:36:00,SystemResetWarning,0830.1,4.98,000.00,027.6,024.8,000.0,035.8,028.9,21.0,0000.0,0004.31,0015.62,0003.16
2023-09-01 21:37:00,SystemResetWarning,0830.0,5.01,000.00,027.5,024.4,000.0,035.7,028.8,21.3,0000.0,0004.30,0015.66,0003.16
2023-09-01 21:38:00,SystemResetWarning,0830.0,5.01,000.00,027.5,024.7,000.0,035.7,028.9,22.4,0000.0,0004.29,0014.94,0003.17
2023-09-01 21:39:00,SystemResetWarning,0830.1,4.99,000.00,027.5,025.1,000.0,035.7,029.0,21.8,0000.0,0004.29,0013.90,0003.19
2023-09-01 21:40:00,SystemResetWarning,0830.0,4.99,000.00,027.5,025.6,000.0,035.7,029.2,21.5,0000.0,0004.26,0014.66,0003.19
2023-09-01 21:41:00,SystemResetWarning,0830.0,5.01,000.00,027.6,026.0,000.0,035.8,029.4,21.1,0000.0,0004.25,0015.09,0003.20
2023-09-01 21:42:00,SystemResetWarning,0830.0,5.00,000.00,027.7,026.3,000.0,035.8,029.4,21.5,0000.0,0004.29,0014.76,0003.21
2023-09-01 21:43:00,SystemResetWarning,0830.0,4.98,000.00,027.7,025.4,000.0,035.8,029.1,21.7,0000.0,0004.24,0014.88,0003.20
2023-09-01 21:44:00,SystemResetWarning,0830.0,5.01,000.00,027.6,024.4,000.0,035.7,028.8,22.1,0000.0,0004.24,0014.64,0003.20
2023-09-01 21:45:00,SystemResetWarning,0830.0,5.01,000.00,027.5,024.5,000.0,035.7,028.9,22.0,0000.0,0004.23,0014.08,0003.21
2023-09-01 21:46:00,SystemResetWarning,0830.0,5.00,000.00,027.5,024.9,000.0,035.7,028.9,22.2,0000.0,0004.24,0015.42,0003.21
2023-09-01 21:47:00,SystemResetWarning,0830.0,5.00,000.00,027.5,025.3,000.0,035.7,029.1,21.8,0000.0,0004.20,0015.97,0003.21
2023-09-01 21:48:00,SystemResetWarning,0830.0,5.00,000.00,027.6,025.8,000.0,035.8,029.3,22.2,0000.0,0004.18,0015.69,0003.21
2023-09-01 21:49:00,SystemResetWarning,0830.1,4.99,000.00,027.7,026.2,000.0,035.8,029.5,21.8,0000.0,0004.19,0015.83,0003.21
2023-09-01 21:50:00,SystemResetWarning,0830.1,4.98,000.00,027.7,026.0,000.0,035.8,029.3,21.1,0000.0,0004.19,0015.81,0003.19
2023-09-01 21:51:00,SystemResetWarning,0830.1,5.00,000.00,027.6,024.8,000.0,035.8,028.8,21.3,0000.0,0004.17,0015.71,0003.18
2023-09-01 21:52:00,SystemResetWarning,0830.0,5.01,000.00,027.5,024.4,000.0,035.7,028.8,22.1,0000.0,0004.15,0014.07,0003.17
2023-09-01 21:53:00,SystemResetWarning,0830.0,5.00,000.00,027.5,024.8,000.0,035.7,028.9,22.0,0000.0,0004.14,0013.18,0003.16
2023-09-01 21:54:00,SystemResetWarning,0830.0,4.99,000.00,027.5,025.2,000.0,035.7,029.0,21.5,0000.0,0004.11,0012.88,0003.17
2023-09-01 21:55:00,SystemResetWarning,0830.1,5.00,000.00,027.5,025.7,000.0,035.8,029.2,21.5,0000.0,0004.13,0013.42,0003.17
2023-09-01 21:56:00,SystemResetWarning,0830.0,5.00,000.00,027.6,026.1,000.0,035.8,029.4,21.6,0000.0,0004.10,0013.83,0003.16
2023-09-01 21:57:00,SystemResetWarning,0830.0,5.00,000.00,027.7,026.4,000.0,035.8,029.5,21.5,0000.0,0004.09,0013.18,0003.15
2023-09-01 21:58:00,SystemResetWarning,0830.0,4.99,000.00,027.7,025.4,000.0,035.8,029.1,21.8,0000.0,0004.15,0012.13,0003.17
2023-09-01 21:59:00,SystemResetWarning,0830.0,5.00,000.00,027.6,024.5,000.0,035.7,028.8,21.9,0000.0,0004.24,0012.92,0003.17
